Temperature
9 9 9 9 9 9 9 9 9 9 9 9 9 9 9 9 9 10 10 10 9 9 10 10 10 10 10 10 10 10 10 10 10 10 10 10 10 10 10 10 10 10 10
8 8 8 8 8 8 8 8 8 8 9 9 9 9 9 9 9 9 9 9 9 9 9 9 9 9 9 9 9 9 9 9 10 10 10 9 9 9 9 9 9 9 9
8 8 8 8 8 8 8 8 8 8 8 8 8 8 8 8 8 8 8 9 9 9 9 8 8 8 8 8 9 9 8 9 9 9 9 9 9 9 9 9 9 9 9
7 7 7 7 7 7 7 7 7 7 7 7 7 7 7 7 7 8 8 8 8 8 8 8 8 8 8 8 8 8 8 8 8 8 8 8 8 8 8 8 8 8 8
6 7 7 7 7 7 7 7 6 6 6 6 7 7 7 7 7 7 7 7 7 7 7 7 7 7 8 8 8 7 8 8 8 7 7 7 7 7 7 7 7 7 7
6 6 6 6 6 6 6 6 6 6 6 6 6 6 6 6 6 6 6 6 7 7 7 7 7 7 7 7 7 7 7 7 7 7 7 7 7 7 7 7 7 7 7
5 5 5 5 5 5 5 5 5 5 5 5 5 5 5 5 6 6 6 6 6 6 6 6 6 6 6 6 6 6 6 6 6 6 6 6 6 6 6 6 6 6 6
4 5 5 5 5 5 5 5 5 5 5 5 5 4 4 4 5 5 5 5 5 5 5 5 5 6 6 6 6 6 6 6 6 6 6 6 6 6 6 6 5 5 5
4 4 4 4 4 4 4 4 4 4 4 4 4 4 4 4 4 4 4 5 5 4 5 5 5 5 5 5 5 5 5 5 5 5 5 5 5 5 5 5 5 5 5
3 3 3 3 4 3 4 4 4 4 4 4 4 4 4 4 3 3 3 4 4 4 4 4 4 4 4 4 4 4 5 4 4 4 4 4 4 4 4 4 4 4 4
3 3 3 3 3 3 3 3 3 3 3 3 3 3 3 3 3 3 2 3 3 3 4 3 4 4 4 4 4 4 4 4 4 4 4 4 4 4 4 4 4 4 4
2 2 2 2 2 2 2 3 3 3 3 3 3 3 3 3 3 3 2 2 2 3 3 3 3 3 3 3 3 3 3 3 3 3 3 3 3 3 3 3 3 3 4
1 1 1 1 1 2 2 2 2 2 2 2 2 2 2 2 2 2 2 2 2 2 2 3 3 3 3 3 3 3 3 3 3 2 2 3 3 3 3 3 3 3 3
0 1 1 1 1 1 1 1 1 1 1 1 1 2 2 2 2 2 2 1 1 1 2 2 2 2 2 2 2 2 2 2 2 2 2 2 2 2 2 2 2 2 3
-0 -0 -0 -0 -0 -0 0 0 0 1 1 1 1 1 1 1 1 1 1 1 1 0 0 1 2 2 2 2 2 2 2 2 1 1 2 2 2 2 2 2 2 2 2
-1 -1 -1 -1 -1 -1 -1 -1 -0 -0 -0 0 0 0 0 0 0 1 1 1 0 0 0 1 1 1 1 1 1 1 1 1 1 1 1 1 1 1 1 1 1 1 1
-2 -2 -1 -2 -2 -1 -1 -1 -1 -1 -1 -1 -0 -0 -0 -0 -0 -0 -0 -0 -0 -0 -0 0 0 0 0 0 1 0 0 0 1 1 1 1 1 1 1 1 1 1 1
-3 -3 -2 -2 -2 -2 -2 -2 -2 -2 -1 -1 -1 -1 -1 -1 -1 -1 -1 -1 -1 -1 -1 -1 -0 -0 -0 0 0 -0 -0 -0 -0 0 0 -0 -0 -0 0 0 0 0 0
-4 -3 -3 -3 -3 -3 -3 -3 -2 -2 -2 -2 -2 -2 -2 -2 -2 -2 -2 -1 -1 -1 -1 -1 -1 -1 -1 -1 -1 -1 -1 -1 -1 -1 -1 -1 -1 -1 -1 -1 -1 -1 -0
-4 -4 -4 -4 -4 -4 -3 -3 -3 -3 -3 -3 -3 -3 -3 -3 -2 -2 -2 -2 -2 -2 -2 -2 -2 -2 -2 -1 -1 -1 -1 -1 -1 -1 -1 -1 -1 -1 -1 -1 -1 -1 -1
-5 -5 -5 -5 -4 -4 -4 -4 -4 -4 -4 -3 -3 -3 -3 -3 -3 -3 -3 -3 -3 -3 -3 -3 -2 -2 -2 -2 -2 -2 -2 -2 -2 -2 -2 -2 -2 -2 -2 -1 -1 -1 -1
-6 -6 -5 -5 -5 -5 -5 -5 -5 -5 -4 -4 -4 -4 -4 -4 -4 -4 -3 -3 -3 -3 -3 -3 -3 -3 -2 -3 -3 -3 -3 -3 -3 -3 -3 -2 -3 -2 -2 -2 -2 -2 -2
-6 -6 -6 -6 -6 -5 -5 -5 -5 -5 -5 -5 -5 -4 -4 -4 -4 -4 -4 -4 -4 -4 -3 -3 -3 -3 -3 -3 -3 -3 -4 -4 -4 -3 -3 -3 -3 -3 -3 -3 -3 -3 -3
-7 -7 -6 -6 -6 -6 -6 -6 -6 -6 -6 -5 -5 -5 -5 -5 -5 -5 -5 -4 -4 -4 -4 -4 -3 -3 -3 -3 -3 -4 -4 -4 -4 -4 -4 -4 -4 -4 -3 -3 -3 -3 -3
-7 -7 -7 -7 -7 -6 -6 -6 -6 -6 -6 -6 -6 -6 -5 -5 -5 -5 -5 -5 -5 -5 -5 -4 -4 -4 -4 -4 -4 -4 -5 -5 -5 -5 -5 -5 -5 -4 -4 -4 -4 -4 -4
-8 -8 -8 -8 -8 -7 -7 -7 -7 -7 -7 -6 -6 -6 -6 -6 -6 -6 -6 -6 -5 -5 -5 -5 -5 -5 -4 -5 -5 -4 -5 -5 -5 -5 -5 -5 -5 -6 -6 -5 -5 -5 -5
Wind_Speed
4 4 4 5 5 6 6 6 7 7 8 9 9 9 9 10 10 10 10 12 12 11 11 11 11 11 11 11 11 11 11 11 11 11 10 10 9 10 10 11 11 11 11
4 3 4 4 4 5 5 6 6 6 6 7 8 8 8 8 9 9 9 10 11 10 10 10 10 10 9 9 10 10 10 9 10 10 10 10 9 9 9 9 9 9 9
4 4 3 3 4 5 6 6 6 6 6 6 6 7 7 8 8 8 8 8 9 9 9 8 8 8 8 8 8 9 8 8 8 9 9 9 9 9 8 8 7 7 7
4 4 3 3 4 5 5 5 4 4 3 4 4 4 6 6 7 7 7 8 8 7 8 8 7 7 7 7 6 7 7 7 7 8 8 8 8 8 7 7 7 6 6
4 4 3 3 4 4 4 4 3 3 3 3 3 3 4 5 5 6 6 6 6 6 6 6 6 5 5 5 5 4 5 6 6 7 7 7 7 6 6 6 6 6 6
3 4 3 3 4 3 2 3 3 3 3 3 3 3 3 3 4 4 4 5 5 6 6 6 6 5 5 5 4 3 4 5 5 5 6 6 6 6 5 5 5 5 5
3 3 3 3 3 3 2 3 3 4 2 2 3 2 3 3 3 3 4 4 4 5 6 6 6 6 5 5 5 4 3 3 3 4 5 5 5 4 4 4 4 4 4
2 2 3 3 2 2 3 3 3 2 1 1 2 2 1 1 2 2 2 2 3 4 4 4 5 5 5 5 4 4 3 2 2 2 3 3 3 3 2 3 3 2 2
1 1 2 3 2 3 4 4 4 3 2 1 1 2 3 3 1 1 1 1 1 2 2 3 3 3 3 3 3 3 3 2 1 1 1 1 1 0 1 1 1 1 1
2 1 1 2 3 2 3 4 3 3 4 3 1 0 1 2 2 1 1 1 1 0 0 0 1 1 2 1 1 1 1 1 0 1 1 1 1 1 0 1 1 1 1
2 1 0 1 2 2 2 3 3 3 3 3 3 2 1 1 1 2 2 2 1 2 1 2 2 2 1 1 1 1 1 1 2 2 3 3 3 2 2 2 2 2 3
1 2 1 1 2 2 2 3 3 4 3 3 3 3 3 3 3 3 3 3 3 2 2 2 3 3 3 2 3 2 2 2 3 3 4 5 5 4 4 3 3 3 3
2 2 2 1 1 2 2 2 3 3 3 4 4 3 3 3 3 3 3 3 2 2 2 2 3 4 5 4 4 4 4 4 5 5 5 6 6 5 5 4 4 5 4
2 2 2 2 2 2 2 2 2 3 2 3 4 4 3 3 4 4 4 3 2 2 3 4 2 5 5 5 5 6 5 6 7 7 7 6 5 5 5 5 4 5 5
2 2 2 2 2 2 2 2 3 3 3 3 3 4 4 3 3 4 4 5 5 4 5 4 3 3 5 5 6 6 6 8 8 8 8 7 6 6 5 5 5 5 5
3 2 3 3 3 3 2 3 3 3 4 4 3 4 4 3 3 4 5 5 5 5 5 3 4 3 4 5 7 6 7 8 9 9 8 8 7 7 7 6 6 6 6
3 3 3 3 3 3 3 3 4 4 4 4 4 5 5 4 4 4 4 5 5 5 6 4 3 3 4 5 5 5 6 7 7 9 9 9 8 8 8 8 7 7 7
3 3 3 3 4 4 4 4 5 5 5 5 5 5 6 5 5 5 5 6 6 6 6 6 4 4 5 5 5 4 5 6 6 8 9 9 8 8 8 8 8 8 7
3 3 3 4 4 5 5 5 5 5 6 6 6 6 6 6 7 5 6 6 6 6 5 6 5 4 4 3 3 3 4 5 5 7 8 9 9 9 9 9 9 9 8
3 4 4 5 5 5 6 6 6 6 6 6 6 7 7 7 8 7 7 7 6 6 6 6 6 5 4 3 3 3 3 4 4 5 7 8 9 10 10 10 11 10 10
4 4 4 5 5 5 5 6 6 6 6 6 6 7 7 9 10 9 7 6 7 6 6 6 6 5 5 5 5 4 5 3 4 4 4 5 6 6 8 10 11 11 11
4 4 4 5 5 5 8 10 8 6 7 7 7 7 8 9 11 12 12 12 11 9 9 8 7 8 8 7 5 5 5 4 4 4 4 4 5 5 7 8 11 12 12
4 4 4 5 5 7 10 11 11 7 6 7 7 7 7 7 9 8 10 12 12 14 14 10 10 10 9 9 8 7 7 7 6 4 4 5 4 6 7 9 12 12 12
4 4 5 5 5 7 10 11 11 7 6 7 7 7 7 7 7 7 7 8 8 10 11 10 10 11 10 10 10 9 8 5 4 4 5 4 4 5 6 8 12 12 12
4 4 5 5 5 7 10 11 10 5 6 7 7 8 8 8 11 11 8 7 8 8 11 13 14 13 14 13 11 6 6 5 5 5 4 4 3 4 4 5 10 11 11
5 5 5 5 5 6 10 11 10 5 6 6 6 7 11 11 12 13 8 8 9 8 7 8 8 9 10 11 13 11 9 7 5 4 5 5 4 2 3 4 5 7 8
Wind_Direction
78 76 75 80 78 81 85 84 82 78 78 74 70 68 64 61 60 61 60 65 74 80 83 85 87 86 86 85 82 82 86 86 85 84 84 87 89 91 92 90 88 85 80
91 87 83 74 77 85 90 92 90 82 78 80 73 67 64 63 61 62 61 60 64 71 80 83 85 85 85 83 83 82 82 88 88 87 84 82 87 91 90 89 88 86 83
99 96 97 89 81 89 93 93 88 83 79 79 74 68 64 61 62 60 60 59 60 61 72 81 85 87 85 85 85 84 82 82 89 88 87 85 85 88 87 86 89 89 86
108 101 98 96 100 99 97 98 101 98 82 79 75 66 63 61 59 61 62 61 60 57 58 67 79 88 89 86 85 86 84 82 92 89 86 85 84 87 88 84 85 89 91
113 112 100 107 110 101 95 101 101 118 109 91 82 69 61 63 60 62 64 64 66 64 61 58 63 77 83 82 82 83 89 88 96 95 89 86 85 84 87 85 87 85 89
108 114 107 112 119 111 101 105 106 97 122 118 93 70 51 59 64 62 64 66 69 72 72 69 66 64 64 71 75 81 97 100 93 97 92 90 90 83 82 85 89 88 87
111 111 112 111 123 135 142 132 131 112 109 125 100 71 36 46 64 57 60 66 63 68 73 71 71 68 62 61 63 76 91 99 98 95 96 95 95 87 77 87 91 89 85
117 116 123 134 138 144 148 146 146 133 141 152 134 125 68 359 9 36 45 62 59 66 67 67 72 68 65 59 52 68 84 94 84 82 90 89 91 94 96 88 99 93 81
43 137 138 141 151 165 177 178 174 163 175 215 179 152 161 205 247 324 359 40 58 66 69 68 67 71 75 67 56 70 81 78 105 83 60 88 73 109 128 85 113 121 82
21 48 128 146 166 175 188 190 190 194 172 188 210 208 163 160 165 220 300 321 310 241 207 125 97 90 97 77 35 51 97 94 220 253 275 283 266 290 273 257 277 259 253
1 3 138 148 164 190 204 199 200 200 192 192 197 191 162 146 164 176 224 251 280 260 244 222 208 195 184 181 228 230 211 213 248 266 274 275 270 269 294 272 284 284 259
339 348 304 212 191 197 211 211 204 207 208 204 208 205 190 183 187 185 211 221 239 254 251 233 218 212 211 204 225 225 220 227 244 265 272 272 270 267 278 280 269 274 273
300 298 320 282 249 223 217 213 205 217 218 210 210 222 225 215 194 190 200 221 244 267 257 246 227 213 212 212 228 226 230 241 247 260 267 270 270 267 269 271 276 264 265
267 280 285 288 278 262 230 222 226 223 219 228 229 222 231 231 211 199 193 196 226 256 242 243 240 219 215 220 228 225 234 244 250 257 260 263 269 270 266 260 266 266 260
282 287 291 292 288 267 245 236 237 227 221 228 233 232 235 247 230 215 203 199 199 225 238 227 221 223 223 226 231 227 236 241 246 254 256 257 259 257 250 251 256 259 260
282 275 278 280 284 270 252 239 255 239 228 232 233 230 238 246 245 226 211 210 212 217 236 224 223 223 222 233 233 231 238 243 244 250 251 252 252 247 245 245 246 250 252
278 267 265 266 271 266 252 233 247 243 235 240 239 231 234 234 237 235 223 216 215 214 234 252 245 228 218 223 239 234 236 239 243 244 245 246 243 244 244 248 245 249 250
278 273 269 262 259 260 251 239 243 246 236 239 242 240 240 236 234 239 228 224 222 218 222 239 245 226 228 222 223 229 237 237 239 239 239 239 238 243 248 248 246 247 249
281 277 268 260 260 258 255 246 239 246 241 239 238 240 243 235 239 240 236 229 228 227 222 226 236 226 226 223 215 232 239 239 240 240 237 237 241 245 247 245 246 247 247
275 271 271 266 264 261 259 252 245 251 247 244 241 239 239 234 235 234 237 231 224 224 222 221 227 223 223 209 202 218 236 226 242 246 242 245 247 248 247 250 249 246 247
288 279 276 274 270 261 256 255 244 248 245 246 246 244 244 242 239 236 238 234 224 221 220 223 224 227 222 207 214 211 230 241 239 231 238 246 245 247 248 251 253 245 246
304 298 289 281 275 270 266 263 254 247 245 243 247 249 249 249 247 248 249 245 234 224 219 221 226 223 224 216 213 213 219 229 248 215 208 242 239 245 249 244 250 251 247
309 303 294 286 279 280 278 271 263 253 245 245 245 247 252 250 250 247 251 252 249 243 233 222 223 223 219 210 204 213 216 225 236 209 200 242 232 242 247 250 253 252 250
302 297 293 286 282 282 284 278 271 261 249 245 246 244 245 249 247 247 245 248 248 245 242 234 226 225 220 212 206 210 216 226 235 216 201 238 233 240 255 251 248 247 249
306 299 293 292 291 292 291 285 279 263 257 251 250 249 247 244 251 250 245 245 252 256 254 249 242 235 230 224 213 195 195 206 230 227 206 217 232 245 252 248 245 243 247
302 304 301 299 295 294 293 289 281 264 260 258 256 252 252 253 252 251 244 239 243 249 246 251 251 243 231 222 215 202 193 202 215 228 201 200 208 212 250 244 239 242 249
Height
1527 1529 1530 1531 1532 1533 1534 1535 1537 1538 1539 1540 1542 1543 1544 1545 1547 1548 1549 1550 1551 1552 1553 1554 1555 1556 1557 1557 1558 1559 1560 1561 1562 1563 1564 1564 1565 1566 1567 1568 1568 1569 1570
1525 1526 1528 1529 1530 1531 1533 1534 1535 1537 1538 1539 1540 1542 1543 1544 1546 1547 1548 1549 1550 1551 1552 1553 1554 1555 1556 1557 1557 1558 1559 1560 1561 1562 1562 1563 1564 1565 1566 1566 1567 1568 1569
1523 1524 1526 1527 1528 1529 1531 1532 1534 1535 1536 1537 1539 1540 1542 1543 1544 1545 1546 1547 1549 1550 1551 1552 1553 1554 1555 1556 1557 1557 1558 1559 1560 1560 1561 1562 1563 1563 1564 1565 1566 1567 1567
1521 1522 1523 1525 1526 1527 1529 1530 1531 1533 1534 1535 1537 1538 1540 1541 1543 1544 1545 1546 1547 1548 1549 1550 1551 1552 1553 1554 1555 1556 1557 1557 1558 1559 1560 1560 1561 1562 1563 1563 1564 1565 1566
1519 1520 1521 1522 1524 1525 1526 1527 1529 1530 1532 1533 1534 1536 1537 1539 1541 1542 1543 1544 1545 1546 1547 1548 1549 1550 1551 1552 1553 1554 1555 1556 1557 1557 1558 1559 1559 1560 1561 1562 1563 1564 1564
1516 1517 1518 1520 1521 1523 1524 1525 1526 1528 1529 1530 1531 1533 1535 1536 1538 1539 1540 1541 1543 1543 1545 1546 1547 1548 1549 1550 1551 1552 1553 1553 1555 1556 1556 1557 1558 1558 1560 1561 1561 1562 1562
1514 1515 1516 1517 1518 1520 1521 1522 1524 1525 1526 1528 1529 1530 1532 1533 1535 1536 1537 1539 1540 1541 1542 1543 1544 1545 1546 1547 1548 1549 1550 1551 1552 1553 1554 1555 1556 1557 1558 1559 1559 1560 1560
1511 1512 1513 1514 1515 1517 1518 1519 1521 1521 1523 1525 1526 1527 1529 1531 1531 1533 1534 1535 1537 1538 1539 1540 1541 1542 1544 1544 1545 1546 1547 1549 1549 1551 1552 1553 1554 1555 1556 1556 1557 1557 1558
1507 1508 1509 1511 1512 1513 1514 1515 1517 1518 1519 1522 1523 1525 1526 1526 1528 1529 1530 1532 1533 1535 1536 1537 1538 1539 1541 1542 1542 1544 1545 1546 1547 1548 1549 1550 1551 1552 1553 1553 1554 1555 1555
1503 1505 1506 1507 1508 1509 1511 1512 1513 1515 1516 1518 1520 1521 1522 1523 1525 1525 1527 1528 1530 1531 1533 1534 1535 1536 1537 1538 1539 1541 1542 1543 1544 1546 1546 1547 1548 1549 1550 1550 1551 1551 1552
1500 1501 1502 1503 1504 1505 1507 1508 1509 1511 1512 1514 1515 1517 1518 1519 1521 1521 1521 1523 1526 1527 1528 1530 1531 1532 1534 1535 1536 1537 1538 1540 1541 1542 1543 1544 1545 1546 1547 1547 1548 1548 1549
1496 1497 1498 1499 1500 1501 1502 1504 1505 1507 1508 1510 1511 1513 1514 1515 1516 1517 1518 1519 1520 1522 1524 1526 1527 1528 1530 1531 1532 1533 1534 1536 1537 1538 1539 1541 1541 1542 1543 1544 1544 1545 1545
1491 1492 1494 1495 1496 1497 1498 1500 1501 1502 1504 1505 1506 1508 1510 1511 1512 1513 1515 1515 1516 1517 1519 1521 1522 1524 1525 1526 1528 1529 1530 1531 1532 1534 1535 1536 1537 1538 1539 1539 1540 1541 1541
1487 1488 1489 1490 1491 1492 1494 1495 1496 1498 1499 1501 1502 1503 1505 1506 1508 1509 1510 1511 1511 1512 1513 1514 1516 1518 1520 1521 1523 1524 1525 1526 1528 1529 1530 1531 1532 1533 1534 1535 1536 1536 1537
1483 1484 1485 1486 1487 1488 1489 1490 1491 1493 1494 1496 1497 1498 1499 1501 1502 1504 1505 1507 1508 1507 1507 1508 1511 1512 1514 1516 1518 1519 1520 1521 1522 1524 1525 1526 1527 1528 1529 1530 1531 1532 1532
1479 1479 1480 1481 1482 1483 1484 1485 1487 1488 1489 1490 1492 1493 1494 1495 1497 1498 1499 1501 1502 1503 1502 1502 1504 1507 1509 1511 1512 1513 1514 1516 1517 1518 1519 1520 1521 1523 1524 1525 1525 1526 1527
1474 1475 1475 1476 1477 1478 1479 1480 1481 1482 1483 1485 1486 1487 1488 1490 1491 1492 1494 1494 1495 1497 1496 1496 1499 1501 1503 1505 1506 1507 1509 1510 1511 1512 1513 1514 1516 1517 1518 1519 1520 1521 1521
1470 1470 1471 1472 1472 1473 1474 1475 1476 1476 1478 1478 1479 1481 1482 1483 1485 1486 1487 1488 1489 1490 1491 1490 1492 1494 1496 1498 1499 1501 1502 1503 1505 1506 1507 1508 1510 1511 1512 1513 1514 1515 1515
1465 1466 1466 1466 1467 1467 1468 1469 1470 1471 1472 1473 1474 1474 1475 1477 1478 1479 1481 1482 1483 1484 1484 1485 1485 1488 1489 1491 1493 1495 1496 1497 1498 1499 1500 1502 1503 1504 1506 1507 1508 1508 1509
1460 1461 1461 1461 1462 1462 1463 1463 1464 1465 1466 1467 1467 1468 1469 1470 1471 1473 1474 1475 1476 1477 1478 1479 1479 1481 1483 1485 1487 1488 1489 1490 1491 1493 1494 1495 1496 1497 1499 1500 1501 1502 1502
1455 1455 1455 1456 1456 1457 1457 1458 1459 1459 1460 1460 1461 1462 1463 1464 1465 1466 1467 1468 1469 1470 1471 1472 1473 1474 1476 1477 1479 1481 1482 1483 1484 1486 1487 1488 1490 1490 1491 1493 1494 1495 1495
1450 1450 1450 1450 1450 1451 1451 1452 1453 1453 1454 1454 1454 1455 1456 1457 1458 1459 1460 1461 1463 1463 1464 1465 1465 1466 1468 1470 1473 1474 1476 1477 1477 1479 1480 1481 1483 1483 1484 1485 1486 1487 1488
1445 1445 1445 1445 1444 1444 1445 1446 1447 1448 1448 1448 1448 1449 1449 1450 1451 1452 1452 1454 1455 1456 1457 1458 1458 1459 1461 1463 1465 1467 1468 1469 1470 1472 1473 1473 1475 1476 1477 1478 1480 1480 1481
1440 1440 1439 1439 1438 1439 1439 1440 1441 1441 1441 1442 1442 1442 1443 1443 1444 1445 1445 1446 1447 1448 1449 1450 1451 1452 1454 1456 1458 1459 1461 1463 1464 1466 1467 1467 1467 1469 1470 1471 1472 1473 1474
1435 1435 1435 1434 1433 1433 1434 1434 1435 1435 1435 1435 1435 1436 1436 1437 1437 1438 1439 1438 1439 1440 1442 1443 1444 1445 1447 1449 1451 1453 1454 1455 1456 1458 1460 1461 1461 1462 1462 1463 1465 1467 1468
1431 1431 1430 1429 1428 1428 1428 1428 1428 1429 1428 1428 1429 1429 1430 1430 1431 1431 1432 1432 1432 1432 1434 1435 1436 1437 1439 1441 1443 1444 1446 1448 1448 1450 1452 1454 1454 1455 1455 1456 1458 1459 1460